DW0281 Itzehoe DE current weather conditions

sailwx.info

Wind from 135 at 2 knots gusting 1

Air temperature 26.1° C
Dewpoint 12.2° C

Last reported at 2019-Aug-23 12:46 UTC.
Time now 2019-Aug-23 13:32 UTC

Location: N 53°53' E 009°32'.
View on Google Maps.

See reports from other nearby stations

  
Tides and Currents Weather Stations Pressure Air Temp Water Temp Dewpoint Dewpoint Depression Visibility Wind Speed Wind Dir Waves Ship Positions
date/time (UTC)wind fromknots sea level pressurealtimeterstation pressurevisibilityair tempwater tempwave heightnotes
2019-Aug-23 12:46 135 2 gusting 1 26.1
2019-Aug-23 12:33 243 3 gusting 6 26.1
2019-Aug-23 12:18 254 2 gusting 4 25.6
2019-Aug-23 12:01 157 3 gusting 4 25.0
2019-Aug-23 11:33 252 2 gusting 4 26.1
2019-Aug-23 11:18 250 3 gusting 7 26.1
2019-Aug-23 11:03 265 2 gusting 5 24.4
2019-Aug-23 10:46 315 0 gusting 1 22.2
2019-Aug-23 10:33 279 1 gusting 5 21.7
2019-Aug-23 10:18 275 1 gusting 5 21.1
2019-Aug-23 09:33 298 1 gusting 3 19.4
2019-Aug-23 09:18 282 1 gusting 3 18.3
2019-Aug-23 09:03 257 3 gusting 7 18.3
2019-Aug-23 08:48 256 3 gusting 5 17.8
2019-Aug-23 08:33 247 3 gusting 6 17.2
2019-Aug-23 08:16 090 3 gusting 1 18.3
2019-Aug-23 08:01 157 2 gusting 0 17.2
2019-Aug-22 23:03 246 13.3
2019-Aug-22 22:48 246 13.3
2019-Aug-22 22:31 337 15.0
2019-Aug-22 22:18 246 13.9
2019-Aug-22 22:01 337 15.6
2019-Aug-22 21:48 246 14.4
2019-Aug-22 21:33 246 14.4
2019-Aug-22 21:16 337 16.1
2019-Aug-22 21:01 270 0 15.6
2019-Aug-22 20:46 270 0 16.7
2019-Aug-22 20:33 246 15.6
2019-Aug-22 20:16 247 0 17.2
2019-Aug-22 20:03 246 16.1
2019-Aug-22 19:33 246 17.2
2019-Aug-22 19:18 246 17.8
2019-Aug-22 18:48 245 18.9
2019-Aug-22 18:16 247 4 gusting 3 22.8
2019-Aug-22 18:03 223 3 gusting 6 20.6
2019-Aug-22 17:48 258 3 gusting 6 21.7
2019-Aug-22 17:33 230 3 gusting 6 22.2
2019-Aug-22 17:16 045 23.9
2019-Aug-22 17:01 112 2 gusting 2 28.9
2019-Aug-22 16:48 280 2 gusting 5 22.8
2019-Aug-22 16:33 265 2 gusting 6 23.3
2019-Aug-22 16:16 135 0 gusting 0 25.0
2019-Aug-22 16:01 135 3 gusting 2 29.4
2019-Aug-22 15:48 265 1 gusting 5 23.9
2019-Aug-22 15:33 200 0 gusting 3 23.9
2019-Aug-22 15:16 135 3 gusting 4 30.0
2019-Aug-22 15:03 208 1 gusting 5 23.9
2019-Aug-22 14:33 185 2 gusting 7 24.4
2019-Aug-22 14:16 157 3 gusting 3 30.0
2019-Aug-22 14:01 067 0 gusting 1 27.8
2019-Aug-22 13:46 135 1 gusting 1 27.2
2019-Aug-22 13:33 192 3 gusting 6 24.4
2019-Aug-22 13:18 223 1 gusting 5 24.4
2019-Aug-22 13:03 241 2 gusting 6 25.0
2019-Aug-22 12:46 157 4 gusting 3 27.2
2019-Aug-22 12:33 279 2 gusting 8 27.8
2019-Aug-22 12:18 275 2 gusting 8 27.2
2019-Aug-22 12:03 213 2 gusting 6 27.8
2019-Aug-22 11:46 112 5 gusting 11 24.4
2019-Aug-22 11:33 281 2 gusting 6 27.8
2019-Aug-22 11:01 180 0 gusting 0 24.4
2019-Aug-22 10:46 157 3 gusting 2 21.7
2019-Aug-22 10:31 157 4 gusting 5 21.1
2019-Aug-22 10:18 192 0 gusting 3 21.1
2019-Aug-22 10:03 141 0 gusting 1 19.4
2019-Aug-22 09:46 067 4 gusting 6 19.4
2019-Aug-22 09:31 067 4 gusting 5 18.9
2019-Aug-22 09:18 096 0 gusting 5 17.8
2019-Aug-22 09:01 067 4 gusting 3 17.8
2019-Aug-21 22:16 112 12.8
2019-Aug-21 21:48 252 12.2
2019-Aug-21 21:18 252 12.2
2019-Aug-21 21:03 252 12.2
2019-Aug-21 20:46 270 0 13.9
2019-Aug-21 20:31 270 0 14.4
2019-Aug-21 20:18 252 13.3
2019-Aug-21 20:03 252 13.3
2019-Aug-21 19:48 252 13.9
2019-Aug-21 19:33 252 13.9
2019-Aug-21 19:03 252 15.0
2019-Aug-21 18:48 252 15.0
2019-Aug-21 18:33 252 15.6
2019-Aug-21 18:18 252 16.1
2019-Aug-21 18:03 252 16.7
2019-Aug-21 17:48 252 17.2
2019-Aug-21 17:33 252 17.8
2019-Aug-21 17:18 236 0 gusting 2 18.3
2019-Aug-21 17:03 232 1 gusting 4 18.3
2019-Aug-21 16:48 247 2 gusting 6 18.3
2019-Aug-21 16:18 012 1 gusting 6 18.9
2019-Aug-21 16:03 254 2 gusting 6 18.9
2019-Aug-21 15:48 229 1 gusting 4 19.4
2019-Aug-21 15:33 254 2 gusting 4 19.4
2019-Aug-21 15:16 135 3 gusting 3 25.0
2019-Aug-21 14:46 270 3 gusting 2 24.4
2019-Aug-21 14:31 270 4 gusting 2 23.9
2019-Aug-21 14:16 157 3 gusting 1 23.3
2019-Aug-21 14:01 270 3 gusting 2 22.8
2019-Aug-21 13:46 247 2 gusting 3 22.2
2019-Aug-21 13:31 360 0 gusting 0 20.6
2019-Aug-21 13:18 237 1 gusting 4 20.6